Location: Grossmotten
(48.5500°N, 15.3833°E)
Time: 12:41:38
(UTC+00:00)

Cosmos 2333 Rocket - Pass Details

Date: 15 November 2019
Orbit: 837 x 865 km, 70.8° (Epoch: 16 December)

Event Time Altitude Azimuth Distance (km) Brightness Sun altitude
Exits shadow 04:13:06 - 340° (NNW) 3,084 4.9 -18.6°
Reaches altitude 10° 04:15:03 10° 351° (N) 2,514 4.5 -18.2°
Maximum altitude 04:19:24 21° 40° (NE) 1,835 4.3 -17.5°
Drops below altitude 10° 04:23:45 10° 89° (E) 2,509 5.9 -16.8°
Sets 04:26:49 0° 105° (ESE) 3,442 7.2 -16.3°
